Tracking 18665 objects as of 23-June-2017
HD Live streaming from Space Station
objects crossing your sky now

AMSAT OSCAR 40

Track AMSAT OSCAR 40 now!
AMSAT OSCAR 40 is classified as:


NORAD ID: 26609
Int'l Code: 2000-072B
Perigee: 1,146.6 km
Apogee: 58,689.2 km
Inclination: 6.4 °
Period: 1,146.6 minutes
Semi major axis: 36288 km
RCS: 1.8057 m2 (large)
Launch date: November 16, 2000
Source: Germany (GER)
Launch site: FRENCH GUIANA (FRGUI)
Uplink (MHz):
Downlink (MHz):
Beacon (MHz): 2401.323
Mode: 400bps PSK
Call sign:
Status: Inactive

Your satellite tracking list
Your tracking list is empty





NASA's NSSDC Master Catalog

Two Line Element Set (TLE):
1 26609U 00072B   17173.42385381 -.00000065 +00000-0 +00000-0 0  9997
2 26609 006.4251 219.1227 7928409 130.1906 331.4188 01.25586322076281
Source of the keplerian elements: AFSPC